ALK253 VCBI-OEDF

Flight info

Callsign ALK253
Flight time N/A
Altitude 36000
Route BASUR2D BASUR P570 OTABI/N0462F380 P570 GOLNI N569 TOKRA/N0454F280 Y511 BOSOB M321 KSA/N0456F390 N687 MIBRA
Aircraft A20N/M-SDE2E3FGHIRWXY/LB1

Departure

Time 2026-05-05 14:58
Airport Bandaranaike International Colombo Airport (VCBI)

Arrival

Time N/A
Airport King Fahd International Airport (OEDF)
Time Latitude Longitude Altitude Speed Heading
2026-05-05 14:42 7.17614 79.88567 27 ft 0 kts 217°
2026-05-05 14:49 7.17631 79.88580 27 ft 10 kts 217°
2026-05-05 14:49 7.17676 79.88614 27 ft 2 kts 219°
2026-05-05 14:49 7.17688 79.88636 27 ft 4 kts 246°
2026-05-05 14:50 7.17690 79.88660 27 ft 0 kts 310°
2026-05-05 14:53 7.17693 79.88657 27 ft 0 kts 309°
2026-05-05 14:53 7.17698 79.88650 27 ft 4 kts 308°
2026-05-05 14:53 7.17720 79.88620 27 ft 8 kts 306°
2026-05-05 14:54 7.17758 79.88568 27 ft 10 kts 305°
2026-05-05 14:54 7.17799 79.88512 27 ft 10 kts 308°
2026-05-05 14:54 7.17843 79.88455 27 ft 10 kts 308°
2026-05-05 14:54 7.17865 79.88406 27 ft 4 kts 274°
2026-05-05 14:55 7.17865 79.88400 27 ft 3 kts 268°
2026-05-05 14:55 7.17840 79.88374 27 ft 9 kts 210°
2026-05-05 14:55 7.17768 79.88334 27 ft 13 kts 214°
2026-05-05 14:55 7.17699 79.88283 27 ft 12 kts 217°
2026-05-05 14:56 7.17629 79.88230 27 ft 13 kts 216°
2026-05-05 14:56 7.17553 79.88171 27 ft 14 kts 216°
2026-05-05 14:56 7.17469 79.88109 27 ft 15 kts 216°
2026-05-05 14:56 7.17437 79.88021 27 ft 14 kts 287°
2026-05-05 14:57 7.17491 79.87949 29 ft 12 kts 320°
2026-05-05 14:57 7.17565 79.87951 29 ft 12 kts 33°
2026-05-05 14:57 7.17799 79.88132 30 ft 77 kts 39°
2026-05-05 14:57 7.18402 79.88595 27 ft 137 kts 37°
2026-05-05 14:58 7.19285 79.89257 175 ft 171 kts 36°
2026-05-05 14:58 7.20286 79.89980 754 ft 179 kts 36°
2026-05-05 14:58 7.21350 79.90564 1504 ft 174 kts
2026-05-05 14:58 7.22547 79.90387 2028 ft 181 kts 327°
2026-05-05 14:59 7.23518 79.89525 2422 ft 195 kts 307°
2026-05-05 14:59 7.24365 79.88374 2804 ft 215 kts 303°
2026-05-05 14:59 7.25277 79.87079 3170 ft 237 kts 305°
2026-05-05 14:59 7.26311 79.85706 3619 ft 253 kts 307°
2026-05-05 15:00 7.27393 79.84336 3713 ft 252 kts 307°
2026-05-05 15:00 7.28114 79.83397 3774 ft 250 kts 306°
2026-05-05 15:00 7.29129 79.81225 3891 ft 268 kts 285°
2026-05-05 15:00 7.29620 79.79424 3960 ft 266 kts 284°
2026-05-05 15:01 7.30087 79.77623 4029 ft 266 kts 283°
2026-05-05 15:01 7.30554 79.75819 4106 ft 266 kts 284°
2026-05-05 15:01 7.31026 79.74011 4177 ft 268 kts 284°
2026-05-05 15:01 7.31774 79.72312 4257 ft 267 kts 301°
2026-05-05 15:02 7.32786 79.70740 4323 ft 268 kts 302°
2026-05-05 15:02 7.33821 79.69176 4398 ft 269 kts 302°
2026-05-05 15:02 7.34856 79.67606 4473 ft 269 kts 302°
2026-05-05 15:02 7.35887 79.66033 4543 ft 269 kts 302°
2026-05-05 15:03 7.36914 79.64452 4635 ft 271 kts 302°
2026-05-05 15:03 7.37945 79.62857 5055 ft 273 kts 302°
2026-05-05 15:03 7.38983 79.61248 5884 ft 275 kts 302°
2026-05-05 15:03 7.40032 79.59621 6624 ft 279 kts 303°
2026-05-05 15:04 7.41097 79.57971 7350 ft 282 kts 303°
2026-05-05 15:04 7.42172 79.56305 8079 ft 286 kts 303°
2026-05-05 15:04 7.43262 79.54617 8792 ft 289 kts 304°
2026-05-05 15:04 7.44369 79.52904 9516 ft 293 kts 304°
2026-05-05 15:05 7.46648 79.49373 10459 ft 317 kts 304°
2026-05-05 15:05 7.47889 79.47451 10651 ft 337 kts 303°
2026-05-05 15:05 7.49189 79.45431 11055 ft 347 kts 303°
2026-05-05 15:06 7.50508 79.43383 11712 ft 350 kts 303°
2026-05-05 15:06 7.51839 79.41316 12364 ft 353 kts 303°
2026-05-05 15:06 7.53183 79.39235 12998 ft 356 kts 303°
2026-05-05 15:06 7.54543 79.37133 13625 ft 359 kts 303°
2026-05-05 15:07 7.55913 79.35011 14171 ft 362 kts 302°
2026-05-05 15:07 7.57290 79.32877 14736 ft 365 kts 302°
2026-05-05 15:07 7.58657 79.30752 15291 ft 367 kts 301°
2026-05-05 15:07 7.59931 79.28518 15833 ft 369 kts 299°
2026-05-05 15:08 7.61227 79.26233 16369 ft 372 kts 299°
2026-05-05 15:08 7.62496 79.23994 16884 ft 374 kts 299°
2026-05-05 15:08 7.63805 79.21678 17418 ft 376 kts 299°
2026-05-05 15:08 7.65099 79.19377 17927 ft 379 kts 298°
2026-05-05 15:09 7.66383 79.17086 18375 ft 381 kts 298°
2026-05-05 15:09 7.67690 79.14752 18772 ft 385 kts 298°
2026-05-05 15:09 7.69012 79.12389 19175 ft 388 kts 298°
2026-05-05 15:09 7.70342 79.10013 19573 ft 391 kts 298°
2026-05-05 15:10 7.71685 79.07615 19953 ft 394 kts 298°
2026-05-05 15:10 7.73039 79.05197 20352 ft 397 kts 298°
2026-05-05 15:10 7.74402 79.02763 20725 ft 401 kts 298°
2026-05-05 15:10 7.75778 79.00303 21121 ft 403 kts 298°
2026-05-05 15:11 7.77161 78.97832 21479 ft 407 kts 298°
2026-05-05 15:11 7.78557 78.95336 21840 ft 410 kts 298°
2026-05-05 15:11 7.79963 78.92823 22223 ft 413 kts 298°
2026-05-05 15:11 7.81381 78.90289 22576 ft 416 kts 298°
2026-05-05 15:12 7.82807 78.87738 22922 ft 420 kts 298°
2026-05-05 15:12 7.84245 78.85167 23282 ft 422 kts 298°
2026-05-05 15:12 7.85693 78.82575 23601 ft 425 kts 298°
2026-05-05 15:12 7.87148 78.79973 23911 ft 427 kts 298°
2026-05-05 15:13 7.88611 78.77356 24235 ft 429 kts 298°
2026-05-05 15:13 7.90077 78.74729 24535 ft 431 kts 298°
2026-05-05 15:13 7.91550 78.72090 24842 ft 433 kts 298°
2026-05-05 15:13 7.93033 78.69433 25131 ft 435 kts 298°
2026-05-05 15:14 7.94520 78.66769 25422 ft 437 kts 298°
2026-05-05 15:14 7.96012 78.64095 25711 ft 439 kts 298°
2026-05-05 15:14 7.97514 78.61404 25998 ft 441 kts 298°
2026-05-05 15:14 7.99022 78.58704 26270 ft 443 kts 299°
2026-05-05 15:15 8.00534 78.55993 26549 ft 444 kts 299°
2026-05-05 15:15 8.02053 78.53269 26816 ft 446 kts 299°
2026-05-05 15:15 8.03580 78.50531 27069 ft 448 kts 299°
2026-05-05 15:15 8.05110 78.47788 27329 ft 450 kts 299°
2026-05-05 15:16 8.06645 78.45036 27592 ft 452 kts 299°
2026-05-05 15:16 8.08189 78.42266 27836 ft 453 kts 299°
2026-05-05 15:16 8.09738 78.39486 28074 ft 455 kts 299°
2026-05-05 15:16 8.11293 78.36694 28327 ft 457 kts 299°
2026-05-05 15:17 8.12849 78.33900 28573 ft 458 kts 299°
2026-05-05 15:17 8.14417 78.31087 28788 ft 460 kts 299°
2026-05-05 15:17 8.15983 78.28273 29012 ft 462 kts 298°
2026-05-05 15:17 8.17558 78.25442 29239 ft 463 kts 298°
2026-05-05 15:18 8.19117 78.22641 29445 ft 465 kts 298°
2026-05-05 15:18 8.20724 78.19753 29652 ft 467 kts 298°
2026-05-05 15:18 8.22315 78.16893 29875 ft 468 kts 298°
2026-05-05 15:18 8.23912 78.14023 30060 ft 470 kts 298°
2026-05-05 15:19 8.25494 78.11179 30226 ft 471 kts 298°
2026-05-05 15:19 8.27099 78.08290 30440 ft 472 kts 298°
2026-05-05 15:19 8.28709 78.05391 30619 ft 474 kts 298°
2026-05-05 15:19 8.30323 78.02485 30803 ft 476 kts 299°
2026-05-05 15:20 8.31945 77.99566 31021 ft 477 kts 299°
2026-05-05 15:20 8.33568 77.96648 31282 ft 476 kts 299°
2026-05-05 15:20 8.35188 77.93734 31545 ft 476 kts 299°
2026-05-05 15:20 8.36806 77.90822 31796 ft 475 kts 299°
2026-05-05 15:21 8.38424 77.87908 32034 ft 475 kts 299°
2026-05-05 15:21 8.40039 77.84998 32277 ft 475 kts 299°
2026-05-05 15:21 8.41653 77.82089 32530 ft 474 kts 299°
2026-05-05 15:21 8.43264 77.79186 32774 ft 474 kts 299°
2026-05-05 15:22 8.44873 77.76285 33006 ft 473 kts 299°
2026-05-05 15:22 8.46480 77.73387 33234 ft 473 kts 299°
2026-05-05 15:22 8.48084 77.70493 33467 ft 472 kts 299°
2026-05-05 15:22 8.49689 77.67600 33691 ft 472 kts 299°
2026-05-05 15:23 8.51291 77.64711 33870 ft 472 kts 299°
2026-05-05 15:23 8.52893 77.61818 34063 ft 471 kts 299°
2026-05-05 15:23 8.54492 77.58932 34230 ft 471 kts 299°
2026-05-05 15:23 8.56090 77.56047 34397 ft 471 kts 299°
2026-05-05 15:24 8.57690 77.53156 34545 ft 471 kts 299°
2026-05-05 15:24 8.59289 77.50267 34710 ft 471 kts 299°
2026-05-05 15:24 8.60888 77.47379 34866 ft 471 kts 299°
2026-05-05 15:24 8.62485 77.44492 35023 ft 470 kts 299°
2026-05-05 15:25 8.64071 77.41624 35206 ft 470 kts 300°
2026-05-05 15:25 8.65133 77.39705 35320 ft 469 kts 299°
2026-05-05 15:25 8.67241 77.35893 35550 ft 468 kts 299°
2026-05-05 15:25 8.68828 77.33023 35719 ft 468 kts 299°
2026-05-05 15:26 8.69899 77.31085 35833 ft 468 kts 299°
2026-05-05 15:26 8.71484 77.28216 36001 ft 467 kts 299°
2026-05-05 15:26 8.73066 77.25353 36161 ft 467 kts 299°
2026-05-05 15:26 8.74647 77.22491 36307 ft 466 kts 299°
2026-05-05 15:27 8.76229 77.19627 36464 ft 466 kts 299°
2026-05-05 15:27 8.78320 77.15840 36641 ft 466 kts 299°
2026-05-05 15:27 8.79385 77.13911 36747 ft 466 kts 299°
2026-05-05 15:27 8.80965 77.11048 36892 ft 465 kts 299°
2026-05-05 15:28 8.82540 77.08196 37043 ft 465 kts 299°
2026-05-05 15:28 8.84115 77.05341 37152 ft 465 kts 300°
2026-05-05 15:28 8.85689 77.02486 37277 ft 465 kts 300°
2026-05-05 15:28 8.87263 76.99633 37400 ft 464 kts 300°
2026-05-05 15:29 8.88833 76.96783 37519 ft 464 kts 300°
2026-05-05 15:29 8.91975 76.91083 37725 ft 464 kts 300°
2026-05-05 15:29 8.93545 76.88234 37831 ft 463 kts 300°
2026-05-05 15:30 8.95112 76.85389 37930 ft 463 kts 300°
2026-05-05 15:30 8.96680 76.82542 38032 ft 463 kts 300°
2026-05-05 15:30 8.98245 76.79700 38138 ft 463 kts 300°
2026-05-05 15:31 9.01374 76.74015 38300 ft 462 kts 300°
2026-05-05 15:31 9.04502 76.68330 38482 ft 461 kts 300°
2026-05-05 15:32 9.07615 76.62668 38649 ft 460 kts 300°
2026-05-05 15:32 9.10705 76.57047 38774 ft 460 kts 300°
2026-05-05 15:33 9.13806 76.51402 38870 ft 459 kts 300°
2026-05-05 15:33 9.16904 76.45762 38870 ft 458 kts 299°
2026-05-05 15:34 9.19998 76.40125 38874 ft 458 kts 299°
2026-05-05 15:34 9.23094 76.34480 38879 ft 459 kts 299°
2026-05-05 15:35 9.26188 76.28839 38878 ft 459 kts 299°
2026-05-05 15:35 9.29291 76.23179 38878 ft 460 kts 299°
2026-05-05 15:36 9.32387 76.17528 38883 ft 459 kts 299°
2026-05-05 15:36 9.35484 76.11872 38880 ft 459 kts 299°
2026-05-05 15:37 9.38579 76.06217 38888 ft 459 kts 299°
2026-05-05 15:37 9.41675 76.00554 38886 ft 459 kts 299°
2026-05-05 15:38 9.44773 75.94892 38889 ft 460 kts 299°
2026-05-05 15:38 9.47875 75.89226 38888 ft 460 kts 299°
2026-05-05 15:39 9.50982 75.83544 38886 ft 461 kts 299°
2026-05-05 15:39 9.54085 75.77859 38947 ft 461 kts 299°
2026-05-05 15:40 9.57190 75.72172 39036 ft 461 kts 299°
2026-05-05 15:40 9.60296 75.66484 39121 ft 461 kts 299°
2026-05-05 15:41 9.63398 75.60790 39194 ft 461 kts 299°
2026-05-05 15:41 9.66498 75.55098 39253 ft 462 kts 299°
2026-05-05 15:42 9.69605 75.49395 39261 ft 462 kts 299°
2026-05-05 15:42 9.72705 75.43702 39412 ft 460 kts 299°
2026-05-05 15:42 9.74245 75.40872 39528 ft 457 kts 299°
2026-05-05 15:43 9.75775 75.38059 39647 ft 455 kts 299°
2026-05-05 15:43 9.77296 75.35262 39762 ft 452 kts 299°
2026-05-05 15:43 9.78812 75.32474 39825 ft 451 kts 299°
2026-05-05 15:44 9.81838 75.26909 39836 ft 451 kts 299°
2026-05-05 15:44 9.84839 75.21384 39831 ft 450 kts 299°
2026-05-05 15:44 9.86346 75.18609 39575 ft 449 kts 299°
2026-05-05 15:45 9.87855 75.15832 39096 ft 452 kts 299°
2026-05-05 15:45 9.90894 75.10228 39090 ft 453 kts 299°
2026-05-05 15:46 9.93960 75.04578 38914 ft 461 kts 299°